Regional Weather Roundup
Issued by NWS

Home | Current Version | Previous Version | Graphics & Text | Print | Product List | Glossary On
Versions: 1 2 3 4 5 6 7 8 9 10 11 12 13 14 15 16 17 18 19 20 21 22 23 24 25 26 27 28 29 30 31 32 33 34 35 36 37 38 39 40 41 42 43 44 45 46 47 48 49 50
000
ASUS43 KFSD 282010
RWRSD

WEATHER ROUNDUP FOR SOUTH DAKOTA
NATIONAL WEATHER SERVICE SIOUX FALLS SD
300 PM CDT SAT MAY 28 2016

NOTE: "FAIR" INDICATES FEW OR NO CLOUDS BELOW 12,000 FEET WITH NO
SIGNIFICANT WEATHER AND/OR OBSTRUCTIONS TO VISIBILITY.


SDZ001>005-009-010-012>017-282100-
NORTHWEST AND NORTH CENTRAL SOUTH DAKOTA

CITY           SKY/WX    TMP DP  RH WIND       PRES   REMARKS
BUFFALO          N/A     69  52  54 NE9       29.84S
FAITH            N/A     71  44  37 VRB3      29.87S
MOBRIDGE       PTSUNNY   74  50  42 NE6       29.83S
$$

SDZ012>016-024>037-041>051-057-063-072>074-282100-
SOUTHWEST AND SOUTH CENTRAL SOUTH DAKOTA

CITY           SKY/WX    TMP DP  RH WIND       PRES   REMARKS
RAPID CTY ARPT LGT RAIN  61  53  75 SW13      29.94F
PIERRE         CLOUDY    71  53  52 VRB6      29.84S
CUSTER         CLOUDY    54  44  69 E12       30.00S
ELLSWORTH AFB  CLOUDY    60  55  84 SW10      29.93R
PHILIP         MOSUNNY   74  49  41 CALM      29.88R
PINE RIDGE     PTSUNNY   74  42  31 SW8       29.90F
WINNER         FAIR      71  55  56 NW13      29.86S
$$

SDZ004>011-016>023-039-040-282100-
NORTHEAST SOUTH DAKOTA

CITY           SKY/WX    TMP DP  RH WIND       PRES   REMARKS
ABERDEEN       CLOUDY    67  59  75 VRB6      29.83S
WATERTOWN      CLOUDY    64  56  75 NE8       29.81S
BROOKINGS      CLOUDY    62  58  86 NE12      29.79S
SISSETON         N/A     70  53  54 NE7       29.79S
$$

SDZ017-020-022-023-036>040-048>070-282100-
SOUTHEAST SOUTH DAKOTA

CITY           SKY/WX    TMP DP  RH WIND       PRES   REMARKS
SIOUX FALLS    CLOUDY    67  58  72 N14       29.76R
HURON          LGT RAIN  64  60  87 N7        29.82R
CHAMBERLAIN    CLOUDY    69  61  75 N9        29.85S
MITCHELL       LGT RAIN  64  60  87 NW13      29.82R
YANKTON        CLOUDY    63  55  77 NW18      29.78R
$$

ABBREVIATIONS USED IN REMARKS
   TC - TEMPERATURE IN CELSIUS
  WCI - WIND CHILL INDEX
   HX - HEAT INDEX
  VSB - VISIBILITY




USA.gov is the U.S. government's official web portal to all federal, state and local government web resources and services.